GW2918 Weather Reports


time (UTC)temp
F
wind
direction
speed
knots
gust
knots
rain 1hr
in
rain 24hr
in
rain mn
in
humidity
%
barometer
mb
20260904111444 66 315 0.0 1.7 0.00 0.00 0.00 99 1016.4
20260904110445 66 73 0.9 1.7 0.00 0.00 0.00 99 1016.3
20260904105441 66 243 0.0 2.6 0.00 0.00 0.00 99 1016.1
20260904104436 66 307 2.6 3.5 0.00 0.00 0.00 99 1015.9
20260904103434 66 227 0.0 1.7 0.00 0.00 0.00 99 1015.9
20260904102431 66 248 0.0 1.7 0.00 0.00 0.00 99 1015.7
20260904101429 67 19 0.0 1.7 0.00 0.00 0.00 99 1015.8
20260904100426 67 66 0.0 7.8 0.00 0.00 0.00 99 1015.9
20260904095421 67 317 1.7 8.7 0.00 0.00 0.00 99 1015.9
20260904094417 68 333 0.9 2.6 0.00 0.00 0.00 99 1015.8
20260904093413 67 349 0.0 3.5 0.00 0.00 0.00 99 1015.8
20260904092411 68 197 0.0 2.6 0.00 0.00 0.00 99 1015.9
20260904091408 68 65 0.9 1.7 0.00 0.00 0.00 99 1016.0
20260904090405 68 157 1.7 3.5 0.00 0.00 0.00 99 1015.7
20260904085401 67 206 0.9 1.7 0.00 0.00 0.00 99 1016.0
20260904084357 67 314 0.0 1.7 0.00 0.00 0.00 99 1015.6
20260904083355 68 214 0.0 2.6 0.00 0.00 0.00 99 1015.4
20260904082351 68 1 2.6 2.6 0.00 0.00 0.00 99 1015.5
20260904081347 68 288 1.7 2.6 0.00 0.00 0.00 99 1015.3
20260904080344 68 257 1.7 1.7 0.00 0.00 0.00 99 1015.4
20260904075341 67 182 0.0 1.7 0.00 0.00 0.00 99 1015.4
20260904074340 67 88 0.9 0.9 0.00 0.00 0.00 99 1015.2
20260904073337 67 63 0.0 0.9 0.00 0.00 0.00 99 1014.9
20260904072332 67 135 0.0 1.7 0.00 0.00 0.00 99 1015.0
20260904071329 67 147 0.0 1.7 0.00 0.00 0.00 99 1015.1
20260904070328 67 160 0.0 0.9 0.00 0.00 0.00 99 1015.0
20260904065326 67 133 0.0 1.7 0.00 0.00 0.00 99 1014.9
20260904064322 68 170 0.0 1.7 0.00 0.00 0.00 99 1014.9
20260904063320 68 186 0.0 0.9 0.00 0.00 0.00 99 1014.8
20260904062317 67 139 0.0 1.7 0.00 0.00 0.00 99 1014.7
20260904061314 67 147 0.0 1.7 0.00 0.00 0.00 99 1014.8
20260904060311 67 181 0.0 1.7 0.00 0.00 0.00 99 1014.7
20260904055307 67 133 0.9 2.6 0.00 0.00 0.00 99 1014.8
20260904054304 67 113 1.7 1.7 0.00 0.00 0.00 99 1015.0
20260904053259 67 311 0.0 2.6 0.00 0.00 0.00 99 1015.3
20260904052257 68 56 0.0 0.9 0.00 0.00 0.00 99 1015.3
20260904051254 68 182 0.9 2.6 0.00 0.00 0.00 99 1015.5
20260904050252 68 265 0.0 1.7 0.00 0.00 0.00 99 1015.3
20260904045253 68 219 0.0 2.6 0.00 0.00 0.00 99 1015.2
20260904044250 69 266 1.7 1.7 0.00 0.00 0.00 99 1015.4
20260904043248 69 197 0.0 2.6 0.00 0.00 0.00 99 1015.1
20260904042245 69 195 0.0 0.9 0.00 0.00 0.00 99 1015.4
20260904041241 69 356 0.0 0.9 0.00 0.00 0.00 99 1015.2
20260904040238 69 307 0.0 0.9 0.00 0.00 0.00 99 1015.6
20260904035235 70 234 0.0 2.6 0.00 0.26 0.26 99 1015.6
20260904034235 70 246 0.0 2.6 0.00 0.26 0.26 99 1015.7
20260904033233 70 211 1.7 3.5 0.00 0.26 0.26 99 1015.9
20260904032234 70 131 0.0 0.9 0.00 0.26 0.26 99 1015.7
20260904031230 69 249 0.0 0.9 0.00 0.26 0.26 99 1015.7
20260904030227 70 201 1.7 2.6 0.00 0.26 0.26 99 1015.6
20260904025224 70 206 2.6 2.6 0.00 0.26 0.26 99 1015.6
20260904024221 69 215 1.7 1.7 0.00 0.26 0.26 99 1015.6
20260904023219 70 206 1.7 2.6 0.00 0.26 0.26 99 1015.6
20260904022216 69 179 0.9 2.6 0.00 0.26 0.26 99 1015.5
20260904021212 69 118 0.9 1.7 0.00 0.26 0.26 99 1015.6
20260904020207 69 147 0.0 1.7 0.00 0.26 0.26 99 1015.7
20260904015206 69 171 0.0 0.9 0.02 0.26 0.26 99 1015.6
20260904014206 70 50 0.0 0.9 0.00 0.25 0.25 99 1016.0
20260904013204 69 154 0.0 0.9 0.00 0.25 0.25 99 1016.1
20260904012159 70 135 0.0 0.9 0.00 0.25 0.25 99 1016.5
20260904011154 70 126 0.0 0.9 0.00 0.25 0.25 99 1016.4
20260904010151 70 180 0.0 0.9 0.00 0.25 0.25 99 1016.5
20260904005148 70 180 0.9 0.9 0.00 0.25 0.25 99 1016.1
20260904004143 70 145 0.0 1.7 0.00 0.25 0.25 99 1016.3
20260904003141 70 218 0.0 1.7 0.00 0.25 0.25 99 1016.5
20260904002137 70 198 0.0 0.9 0.00 0.25 0.25 99 1016.5
20260904001137 70 157 0.0 0.9 0.00 0.25 0.25 99 1016.3
20260904000134 70 322 0.0 0.0 0.00 0.25 0.25 99 1016.0
20260903235130 70 334 1.7 2.6 0.00 0.25 0.25 99 1016.0
20260903234126 70 179 0.0 1.7 0.00 0.25 0.25 99 1015.6
20260903233124 71 50 4.3 5.2 0.24 0.25 0.25 99 1015.5
20260903232120 72 74 2.6 6.1 0.00 0.21 0.21 95 1016.1
20260903231120 75 341 3.5 3.5 0.00 0.21 0.21 97 1015.8
20260903230120 75 180 0.0 1.7 0.00 0.21 0.21 96 1015.7
20260903225119 75 40 0.9 0.9 0.00 0.21 0.21 96 1016.0
20260903224117 75 159 0.0 0.9 0.00 0.21 0.21 95 1015.8
20260903223116 76 64 1.7 1.7 0.00 0.21 0.21 98 1015.6
20260903222115 76 152 0.0 0.9 0.00 0.21 0.21 94 1015.2
20260903221115 76 284 0.9 0.9 0.00 0.21 0.21 94 1015.6
20260903220114 76 36 0.0 1.7 0.00 0.21 0.21 94 1015.4
20260903215114 76 164 0.9 2.6 0.00 0.21 0.21 93 1015.6
20260903214108 76 59 1.7 2.6 0.00 0.21 0.21 94 1015.3
20260903213105 75 352 0.9 2.6 0.02 0.21 0.21 96 1015.4
20260903212101 77 94 1.7 3.5 0.02 0.21 0.21 90 1015.2
20260903211059 77 80 1.7 4.3 0.00 0.20 0.20 88 1015.4
20260903210055 79 74 3.5 3.5 0.00 0.20 0.20 86 1015.3
20260903205055 81 278 2.6 3.5 0.00 0.20 0.20 82 1015.2
20260903204051 81 309 1.7 2.6 0.00 0.20 0.20 81 1015.2
20260903203047 81 221 1.7 8.7 0.00 0.20 0.20 81 1014.9
20260903202044 82 208 0.9 3.5 0.00 0.20 0.20 79 1015.6
20260903201044 82 218 1.7 4.3 0.00 0.20 0.20 80 1015.6
20260903200040 82 229 1.7 4.3 0.00 0.20 0.20 81 1015.7
20260903195037 82 217 1.7 5.2 0.00 0.20 0.20 80 1015.6
20260903194033 83 253 1.7 3.5 0.00 0.20 0.20 80 1015.6
20260903193031 79 261 1.7 2.6 0.00 0.20 0.20 82 1015.7
20260903192028 80 260 0.9 2.6 0.00 0.20 0.20 84 1015.9
20260903191024 82 277 1.7 4.3 0.00 0.20 0.20 77 1016.3
20260903190023 80 304 1.7 4.3 0.00 0.20 0.20 78 1015.9
20260903185020 83 205 1.7 5.2 0.00 0.20 0.20 78 1016.0
20260903184017 81 282 1.7 3.5 0.00 0.20 0.20 80 1016.5
20260903183017 81 229 2.6 4.3 0.00 0.20 0.20 82 1016.7
20260903182013 80 220 4.3 8.7 0.00 0.20 0.20 82 1016.5
20260903181011 79 265 0.9 4.3 0.00 0.20 0.20 83 1016.5
20260903180005 79 202 1.7 5.2 0.00 0.20 0.20 83 1016.7
20260903175004 78 277 1.7 5.2 0.00 0.20 0.20 82 1016.8
20260903173959 79 213 1.7 7.0 0.00 0.20 0.20 84 1016.9
20260903172956 78 220 3.5 5.2 0.00 0.20 0.20 83 1016.6
20260903171952 79 275 1.7 4.3 0.00 0.20 0.20 81 1016.8
20260903170948 78 227 7.0 7.8 0.00 0.20 0.20 84 1016.7
20260903165948 78 263 0.9 3.5 0.00 0.20 0.20 83 1017.1
20260903164942 77 204 4.3 4.3 0.00 0.20 0.20 83 1017.2
20260903163942 77 225 0.9 4.3 0.00 0.20 0.20 84 1017.0
20260903162941 78 205 6.1 6.1 0.00 0.20 0.20 82 1017.0
20260903161938 76 203 5.2 6.1 0.00 0.20 0.20 85 1017.3
20260903160935 76 201 6.1 6.1 0.00 0.20 0.20 83 1017.5
20260903155933 76 196 1.7 6.1 0.00 0.20 0.20 84 1017.4
20260903154929 75 216 3.5 7.8 0.00 0.20 0.20 88 1017.8
20260903153926 75 207 0.9 5.2 0.00 0.20 0.20 87 1017.8
20260903152924 74 215 3.5 6.1 0.00 0.20 0.20 87 1017.9
20260903151920 74 228 1.7 6.1 0.00 0.20 0.20 88 1017.7
20260903150915 73 203 2.6 5.2 0.00 0.20 0.20 89 1017.8
20260903145911 73 232 0.0 5.2 0.00 0.20 0.20 92 1017.7
20260903144912 73 184 1.7 5.2 0.00 0.20 0.20 91 1017.7
20260903143908 71 194 3.5 7.0 0.00 0.20 0.20 92 1017.7
20260903142905 71 247 4.3 5.2 0.00 0.20 0.20 95 1017.4
20260903141902 69 234 3.5 8.7 0.00 0.20 0.20 95 1017.7
20260903140859 69 256 2.6 10.4 0.00 0.20 0.20 97 1017.8
20260903135855 68 31 1.7 13.0 0.00 0.20 0.20 97 1017.7
20260903134855 67 255 1.7 8.7 0.00 0.20 0.20 99 1017.7
20260903133854 67 232 5.2 7.0 0.00 0.20 0.20 99 1017.9
20260903132851 66 203 9.6 9.6 0.00 0.20 0.20 99 1018.1
20260903131847 66 202 2.6 11.3 0.00 0.20 0.20 99 1017.9
20260903130846 66 219 2.6 8.7 0.00 0.20 0.20 99 1017.8
20260903125845 66 223 3.5 7.0 0.00 0.20 0.20 99 1017.7
20260903124845 66 201 3.5 10.4 0.00 0.20 0.20 99 1017.8
20260903123846 66 208 7.8 10.4 0.00 0.20 0.20 99 1017.9
20260903122845 66 233 4.3 7.8 0.00 0.20 0.20 99 1017.9
20260903121844 65 191 1.7 4.3 0.00 0.20 0.20 99 1017.6
20260903120841 65 218 2.6 7.0 0.00 0.20 0.20 99 1017.7
20260903115838 65 225 6.1 8.7 0.00 0.20 0.20 99 1017.6
20260903114833 65 212 3.5 7.8 0.00 0.20 0.20 99 1017.3
20260903113831 65 166 1.7 7.8 0.00 0.20 0.20 99 1017.1
20260903112828 64 148 0.0 7.8 0.00 0.20 0.20 99 1016.9